{"data":{"norad_id":60533,"epoch":"2026-09-19T11:24:02.146176Z","epoch_age_seconds":102974,"freshness":"FRESH","line1":"1 60533U 24149BT  26262.47502484  .00007165  00000+0  40315-3 0  9993","line2":"2 60533  97.6682 345.4386 0001720  95.4235 264.7192 15.13563815114755","mean_motion":15.13563815,"eccentricity":0.000172,"inclination_deg":97.6682,"raan_deg":345.4386,"arg_perigee_deg":95.4235,"mean_anomaly_deg":264.7192,"bstar":0.00040315,"rev_number":11475,"period_min":95.139695183582,"perigee_km":524.15474372862,"apogee_km":526.52954055352,"semimajor_km":6903.4791421411,"source":"CELESTRAK","updated_at":"2026-09-20T09:00:34.871240Z"}}